ANZ121 NZAA-YMML

Flight info

Callsign ANZ121
Flight time N/A
Altitude 36000
Route BROK4Q/05R PEBLU N759 GEMAC Q302 RIMSU DCT BOYSE
Aircraft B77W/H-SDE1E2E3FGHIJ2J3J4J5M1RWXY/LB1D1

Departure

Time N/A
Airport Auckland International Airport (NZAA)

Arrival

Time 2026-05-01 09:13
Airport Melbourne Airport (YMML)
Time Latitude Longitude Altitude Speed Heading
2026-05-01 07:23 -37.40675 173.78232 25966 ft 471 kts 251°
2026-05-01 07:23 -37.42689 173.70327 27013 ft 478 kts 251°
2026-05-01 07:24 -37.43707 173.66325 27505 ft 482 kts 251°
2026-05-01 07:24 -37.44716 173.62349 27984 ft 485 kts 252°
2026-05-01 07:24 -37.45745 173.58286 28475 ft 488 kts 252°
2026-05-01 07:24 -37.46779 173.54199 28948 ft 491 kts 252°
2026-05-01 07:25 -37.47817 173.50089 29401 ft 494 kts 252°
2026-05-01 07:25 -37.48860 173.45951 29832 ft 498 kts 252°
2026-05-01 07:25 -37.49908 173.41789 30234 ft 501 kts 252°
2026-05-01 07:25 -37.50960 173.37604 30692 ft 501 kts 252°
2026-05-01 07:26 -37.52007 173.33429 31252 ft 497 kts 252°
2026-05-01 07:26 -37.53040 173.29301 31971 ft 490 kts 252°
2026-05-01 07:26 -37.54042 173.25292 32639 ft 484 kts 252°
2026-05-01 07:26 -37.55046 173.21272 33323 ft 477 kts 252°
2026-05-01 07:27 -37.56033 173.17308 34050 ft 470 kts 252°
2026-05-01 07:27 -37.57006 173.13400 34654 ft 466 kts 252°
2026-05-01 07:27 -37.58957 173.05543 35191 ft 468 kts 252°
2026-05-01 07:28 -37.59916 173.01672 35446 ft 469 kts 252°
2026-05-01 07:28 -37.60887 172.97744 35758 ft 469 kts 252°
2026-05-01 07:28 -37.61838 172.93891 36062 ft 468 kts 252°
2026-05-01 07:28 -37.62804 172.89974 36362 ft 468 kts 252°
2026-05-01 07:29 -37.63770 172.86049 36509 ft 471 kts 252°
2026-05-01 07:29 -37.65715 172.78127 36586 ft 472 kts 252°
2026-05-01 07:30 -37.67644 172.70242 36586 ft 467 kts 252°
2026-05-01 07:30 -37.69552 172.62417 36592 ft 466 kts 252°
2026-05-01 07:31 -37.71452 172.54602 36592 ft 466 kts 252°
2026-05-01 07:32 -37.76177 172.35055 36596 ft 468 kts 252°
2026-05-01 07:33 -37.79021 172.23215 36591 ft 470 kts 252°
2026-05-01 07:33 -37.81863 172.11324 36594 ft 472 kts 253°
2026-05-01 07:34 -37.84690 171.99433 36593 ft 473 kts 253°
2026-05-01 07:35 -37.86580 171.91452 36594 ft 474 kts 253°
2026-05-01 07:35 -37.88466 171.83460 36593 ft 474 kts 253°
2026-05-01 07:36 -37.90348 171.75460 36594 ft 474 kts 253°
2026-05-01 07:36 -37.92213 171.67502 36592 ft 475 kts 253°
2026-05-01 07:37 -37.97933 171.42931 36598 ft 475 kts 253°
2026-05-01 07:37 -38.00767 171.30658 36592 ft 476 kts 253°
2026-05-01 07:38 -38.02621 171.22599 36595 ft 476 kts 253°
2026-05-01 07:39 -38.07666 171.00517 36597 ft 477 kts 253°
2026-05-01 07:39 -38.13043 170.68053 36642 ft 479 kts 264°
2026-05-01 07:39 -38.18700 170.00538 36605 ft 482 kts 262°
2026-05-01 07:40 -38.27211 168.96645 36606 ft 483 kts 263°
2026-05-01 07:40 -38.36951 167.60540 36576 ft 482 kts 263°
2026-05-01 07:41 -38.43307 166.56616 36575 ft 483 kts 264°
2026-05-01 07:42 -38.44618 166.33012 36582 ft 482 kts 264°
2026-05-01 07:42 -38.45082 166.24480 36582 ft 482 kts 264°
2026-05-01 07:43 -38.45540 166.15946 36587 ft 482 kts 264°
2026-05-01 07:43 -38.46212 166.03208 36582 ft 482 kts 264°
2026-05-01 07:44 -38.47089 165.86147 36585 ft 482 kts 264°
2026-05-01 07:45 -38.47519 165.77612 36600 ft 482 kts 264°
2026-05-01 07:45 -38.47940 165.69128 36578 ft 482 kts 264°
2026-05-01 07:46 -38.48358 165.60580 36587 ft 483 kts 264°
2026-05-01 07:47 -38.48974 165.47750 36593 ft 483 kts 264°
2026-05-01 07:47 -38.49377 165.39189 36581 ft 483 kts 264°
2026-05-01 07:48 -38.49967 165.26397 36579 ft 484 kts 264°
2026-05-01 07:48 -38.50489 165.14823 36586 ft 484 kts 264°
2026-05-01 07:49 -38.51073 165.01546 36589 ft 485 kts 265°
2026-05-01 07:50 -38.51444 164.92951 36590 ft 485 kts 265°
2026-05-01 07:50 -38.51985 164.80115 36591 ft 485 kts 265°
2026-05-01 07:51 -38.52340 164.71511 36589 ft 485 kts 265°
2026-05-01 07:52 -38.52861 164.58599 36588 ft 485 kts 265°
2026-05-01 07:52 -38.53199 164.50049 36580 ft 486 kts 265°
2026-05-01 07:53 -38.53697 164.37118 36579 ft 486 kts 265°
2026-05-01 07:53 -38.54020 164.28503 36581 ft 486 kts 265°
2026-05-01 07:55 -38.54801 164.06996 36583 ft 486 kts 265°
2026-05-01 07:56 -38.55545 163.85415 36583 ft 487 kts 265°
2026-05-01 07:57 -38.56178 163.66085 36576 ft 487 kts 265°
2026-05-01 07:58 -38.57229 163.31532 36577 ft 486 kts 265°
2026-05-01 07:59 -38.58176 162.97098 36572 ft 486 kts 265°
2026-05-01 08:00 -38.59392 162.45381 36574 ft 485 kts 266°
2026-05-01 08:01 -38.60075 162.11086 36570 ft 484 kts 266°
2026-05-01 08:02 -38.60522 161.85310 36572 ft 483 kts 266°
2026-05-01 08:03 -38.60912 161.59538 36562 ft 483 kts 266°
2026-05-01 08:03 -38.61244 161.33886 36561 ft 483 kts 266°
2026-05-01 08:04 -38.61977 160.44010 36572 ft 482 kts 266°
2026-05-01 08:05 -38.62041 160.20805 36553 ft 482 kts 266°
2026-05-01 08:06 -38.62071 159.95239 36548 ft 481 kts 267°
2026-05-01 08:07 -38.62023 159.61065 36550 ft 480 kts 267°
2026-05-01 08:08 -38.61923 159.35470 36551 ft 480 kts 267°
2026-05-01 08:09 -38.61703 159.01471 36542 ft 479 kts 267°
2026-05-01 08:09 -38.61555 158.84426 36540 ft 479 kts 268°
2026-05-01 08:10 -38.61189 158.50524 36535 ft 478 kts 268°
2026-05-01 08:11 -38.60724 158.16587 36532 ft 476 kts 268°
2026-05-01 08:12 -38.60312 157.91223 36526 ft 475 kts 269°
2026-05-01 08:13 -38.59850 157.66055 36521 ft 473 kts 269°
2026-05-01 08:13 -38.59330 157.40855 36516 ft 472 kts 269°
2026-05-01 08:14 -38.58951 157.24096 36515 ft 471 kts 269°
2026-05-01 08:14 -38.58550 157.07383 36508 ft 470 kts 270°
2026-05-01 08:15 -38.57910 156.82483 36510 ft 469 kts 270°
2026-05-01 08:16 -38.57424 156.64870 36506 ft 468 kts 270°
2026-05-01 08:16 -38.56437 156.31661 36500 ft 467 kts 270°
2026-05-01 08:17 -38.55360 155.98566 36498 ft 465 kts 271°
2026-05-01 08:17 -38.54201 155.65794 36490 ft 464 kts 271°
2026-05-01 08:18 -38.52947 155.32925 36480 ft 463 kts 271°
2026-05-01 08:19 -38.50172 154.67443 36467 ft 460 kts 272°
2026-05-01 08:19 -38.47315 154.07106 36441 ft 459 kts 273°
2026-05-01 08:20 -38.43856 153.42310 36439 ft 457 kts 274°
2026-05-01 08:20 -38.41353 152.99091 36432 ft 457 kts 275°
2026-05-01 08:21 -38.39384 152.66818 36427 ft 456 kts 275°
2026-05-01 08:21 -38.37342 152.34798 36413 ft 456 kts 275°
2026-05-01 08:22 -38.35200 152.02595 36412 ft 456 kts 276°
2026-05-01 08:22 -38.32972 151.70453 36403 ft 455 kts 276°
2026-05-01 08:23 -38.31058 151.43803 36387 ft 455 kts 276°
2026-05-01 08:23 -38.29884 151.27872 36386 ft 455 kts 277°
2026-05-01 08:24 -38.28679 151.11825 36376 ft 455 kts 277°
2026-05-01 08:24 -38.27455 150.95802 36368 ft 455 kts 277°
2026-05-01 08:25 -38.26457 150.82965 36362 ft 455 kts 277°
2026-05-01 08:25 -38.25833 150.75016 36357 ft 455 kts 277°
2026-05-01 08:26 -38.25198 150.67011 36356 ft 455 kts 277°
2026-05-01 08:26 -38.24558 150.59009 36351 ft 455 kts 277°
2026-05-01 08:27 -38.23913 150.51006 36349 ft 455 kts 277°
2026-05-01 08:27 -38.23267 150.43055 36344 ft 455 kts 278°
2026-05-01 08:28 -38.22610 150.35040 36342 ft 455 kts 278°
2026-05-01 08:28 -38.21680 150.27096 36342 ft 454 kts 282°
2026-05-01 08:29 -38.20517 150.19204 36337 ft 454 kts 282°
2026-05-01 08:29 -38.19343 150.11315 36331 ft 454 kts 282°
2026-05-01 08:30 -38.18189 150.03481 36330 ft 454 kts 282°
2026-05-01 08:30 -38.17031 149.95591 36325 ft 454 kts 283°
2026-05-01 08:31 -38.15868 149.87698 36317 ft 454 kts 282°
2026-05-01 08:31 -38.14700 149.79805 36317 ft 454 kts 283°
2026-05-01 08:32 -38.13527 149.71916 36312 ft 454 kts 283°
2026-05-01 08:32 -38.12348 149.64033 36314 ft 454 kts 283°
2026-05-01 08:33 -38.11172 149.56202 36310 ft 455 kts 282°
2026-05-01 08:33 -38.09981 149.48311 36307 ft 455 kts 283°
2026-05-01 08:34 -38.08783 149.40416 36302 ft 456 kts 283°
2026-05-01 08:34 -38.07579 149.32516 36301 ft 456 kts 283°
2026-05-01 08:35 -38.06368 149.24604 36296 ft 457 kts 283°
2026-05-01 08:35 -38.05158 149.16738 36292 ft 458 kts 283°
2026-05-01 08:36 -38.03932 149.08806 36292 ft 458 kts 283°
2026-05-01 08:36 -38.02701 149.00874 36290 ft 459 kts 283°
2026-05-01 08:37 -38.01463 148.92940 36287 ft 459 kts 283°
2026-05-01 08:37 -38.00220 148.85005 36286 ft 459 kts 283°
2026-05-01 08:38 -37.98979 148.77126 36283 ft 459 kts 283°
2026-05-01 08:38 -37.97726 148.69203 36282 ft 458 kts 283°
2026-05-01 08:39 -37.96468 148.61284 36282 ft 458 kts 283°
2026-05-01 08:39 -37.95205 148.53369 36280 ft 458 kts 283°
2026-05-01 08:40 -37.93309 148.41556 36280 ft 458 kts 283°
2026-05-01 08:40 -37.92033 148.33652 36276 ft 458 kts 283°
2026-05-01 08:41 -37.90752 148.25749 36278 ft 458 kts 283°
2026-05-01 08:41 -37.89464 148.17844 36276 ft 458 kts 283°
2026-05-01 08:42 -37.88179 148.09992 36277 ft 459 kts 283°
2026-05-01 08:42 -37.86881 148.02089 36279 ft 459 kts 283°
2026-05-01 08:43 -37.85576 147.94184 36280 ft 459 kts 283°
2026-05-01 08:43 -37.84265 147.86276 36278 ft 459 kts 283°
2026-05-01 08:44 -37.82948 147.78364 36275 ft 459 kts 283°
2026-05-01 08:44 -37.81635 147.70513 36272 ft 459 kts 283°
2026-05-01 08:45 -37.80309 147.62615 36275 ft 459 kts 283°
2026-05-01 08:45 -37.78978 147.54726 36273 ft 459 kts 283°
2026-05-01 08:46 -37.77642 147.46837 36275 ft 459 kts 283°
2026-05-01 08:46 -37.76302 147.38958 36269 ft 458 kts 283°
2026-05-01 08:47 -37.74967 147.31146 36274 ft 458 kts 283°
2026-05-01 08:47 -37.73620 147.23292 36278 ft 457 kts 283°
2026-05-01 08:48 -37.72276 147.15490 36024 ft 451 kts 283°
2026-05-01 08:48 -37.71609 147.11629 35556 ft 449 kts 283°
2026-05-01 08:48 -37.70946 147.07798 35077 ft 445 kts 283°
2026-05-01 08:49 -37.70287 147.03996 34589 ft 442 kts 283°
2026-05-01 08:49 -37.69640 147.00275 34097 ft 439 kts 283°
2026-05-01 08:49 -37.68988 146.96521 33550 ft 436 kts 283°
2026-05-01 08:49 -37.68339 146.92797 33027 ft 433 kts 283°
2026-05-01 08:50 -37.67694 146.89100 32517 ft 430 kts 283°
2026-05-01 08:50 -37.67050 146.85423 32017 ft 427 kts 283°
2026-05-01 08:50 -37.66410 146.81777 31537 ft 425 kts 283°
2026-05-01 08:50 -37.65774 146.78149 31047 ft 422 kts 283°
2026-05-01 08:51 -37.65139 146.74540 30570 ft 420 kts 283°
2026-05-01 08:51 -37.64505 146.70949 30035 ft 419 kts 283°
2026-05-01 08:51 -37.63873 146.67372 29484 ft 416 kts 283°
2026-05-01 08:51 -37.63253 146.63870 28975 ft 413 kts 283°
2026-05-01 08:52 -37.62630 146.60350 28487 ft 410 kts 283°
2026-05-01 08:52 -37.62009 146.56854 28009 ft 407 kts 284°
2026-05-01 08:52 -37.61393 146.53394 27608 ft 399 kts 284°
2026-05-01 08:52 -37.60794 146.50033 27020 ft 388 kts 284°
2026-05-01 08:53 -37.60204 146.46729 26245 ft 387 kts 284°
2026-05-01 08:53 -37.59607 146.43396 25626 ft 390 kts 285°
2026-05-01 08:53 -37.59007 146.40059 25132 ft 390 kts 285°
2026-05-01 08:53 -37.58418 146.36777 24693 ft 389 kts 285°
2026-05-01 08:54 -37.57821 146.33459 24221 ft 388 kts 285°
2026-05-01 08:54 -37.57224 146.30146 23734 ft 387 kts 286°
2026-05-01 08:54 -37.56633 146.26868 23202 ft 380 kts 286°
2026-05-01 08:54 -37.56048 146.23626 22738 ft 378 kts 286°
2026-05-01 08:55 -37.55466 146.20413 22288 ft 375 kts 286°
2026-05-01 08:55 -37.54886 146.17213 21842 ft 373 kts 286°
2026-05-01 08:55 -37.54309 146.14035 21407 ft 371 kts 286°
2026-05-01 08:55 -37.53742 146.10918 20953 ft 369 kts 286°
2026-05-01 08:56 -37.53170 146.07779 20535 ft 367 kts 286°
2026-05-01 08:56 -37.52599 146.04650 20092 ft 365 kts 286°
2026-05-01 08:56 -37.52030 146.01541 19665 ft 364 kts 286°
2026-05-01 08:56 -37.51463 145.98442 19235 ft 363 kts 286°
2026-05-01 08:57 -37.50896 145.95353 18794 ft 361 kts 285°
2026-05-01 08:57 -37.50329 145.92270 18310 ft 361 kts 285°
2026-05-01 08:57 -37.49764 145.89196 17838 ft 359 kts 285°
2026-05-01 08:57 -37.49201 145.86139 17387 ft 357 kts 285°
2026-05-01 08:58 -37.48641 145.83098 16934 ft 356 kts 285°
2026-05-01 08:58 -37.48090 145.80116 16497 ft 353 kts 286°
2026-05-01 08:58 -37.47534 145.77113 16011 ft 353 kts 286°
2026-05-01 08:58 -37.46989 145.74163 15457 ft 340 kts 286°
2026-05-01 08:59 -37.46452 145.71269 15038 ft 339 kts 286°
2026-05-01 08:59 -37.45915 145.68385 14618 ft 338 kts 286°
2026-05-01 08:59 -37.45534 145.65487 14168 ft 336 kts 271°
2026-05-01 08:59 -37.45974 145.62605 13759 ft 338 kts 252°
2026-05-01 09:00 -37.47128 145.60023 13366 ft 340 kts 237°
2026-05-01 09:00 -37.48534 145.57643 12957 ft 338 kts 235°
2026-05-01 09:00 -37.49956 145.55290 12572 ft 337 kts 235°
2026-05-01 09:00 -37.51344 145.52970 12202 ft 335 kts 236°
2026-05-01 09:01 -37.52728 145.50617 11820 ft 334 kts 236°
2026-05-01 09:01 -37.54097 145.48266 11439 ft 332 kts 236°
2026-05-01 09:01 -37.55458 145.45921 11073 ft 331 kts 236°
2026-05-01 09:01 -37.56810 145.43587 10699 ft 330 kts 236°
2026-05-01 09:02 -37.58160 145.41256 10350 ft 328 kts 236°
2026-05-01 09:02 -37.59485 145.38968 10209 ft 319 kts 236°
2026-05-01 09:02 -37.60774 145.36741 10058 ft 310 kts 236°
2026-05-01 09:02 -37.62041 145.34549 9689 ft 309 kts 237°
2026-05-01 09:03 -37.62878 145.33099 9459 ft 308 kts 237°
2026-05-01 09:03 -37.64538 145.30217 8998 ft 305 kts 237°
2026-05-01 09:03 -37.65782 145.28063 8665 ft 303 kts 237°
2026-05-01 09:03 -37.67022 145.25911 8321 ft 302 kts 237°
2026-05-01 09:04 -37.68257 145.23765 7977 ft 302 kts 237°
2026-05-01 09:04 -37.69479 145.21643 7795 ft 295 kts 237°
2026-05-01 09:04 -37.70271 145.20269 7697 ft 290 kts 237°
2026-05-01 09:04 -37.71445 145.18228 7465 ft 286 kts 237°
2026-05-01 09:05 -37.72612 145.16196 7144 ft 286 kts 237°
2026-05-01 09:05 -37.73780 145.14162 6830 ft 286 kts 237°
2026-05-01 09:05 -37.74945 145.12132 6497 ft 286 kts 238°
2026-05-01 09:05 -37.76488 145.09442 6041 ft 283 kts 238°
2026-05-01 09:06 -37.77631 145.07449 5709 ft 279 kts 238°
2026-05-01 09:06 -37.78767 145.05466 5397 ft 278 kts 238°
2026-05-01 09:06 -37.79518 145.04153 5194 ft 278 kts 238°
2026-05-01 09:06 -37.80653 145.02170 4864 ft 279 kts 238°
2026-05-01 09:07 -37.81568 145.00090 4515 ft 265 kts 259°
2026-05-01 09:07 -37.81932 144.97887 4365 ft 249 kts 264°
2026-05-01 09:07 -37.82280 144.95783 4250 ft 240 kts 263°
2026-05-01 09:07 -37.82696 144.93167 3945 ft 220 kts 267°
2026-05-01 09:08 -37.82923 144.91319 3667 ft 205 kts 267°
2026-05-01 09:08 -37.83067 144.90129 3523 ft 201 kts 268°
2026-05-01 09:08 -37.82894 144.87957 3184 ft 181 kts 308°
2026-05-01 09:08 -37.82360 144.87174 3076 ft 177 kts 326°
2026-05-01 09:09 -37.81320 144.86498 2838 ft 159 kts 353°
2026-05-01 09:09 -37.80275 144.86310 2653 ft 148 kts 355°
2026-05-01 09:09 -37.78953 144.86051 2363 ft 137 kts 355°
2026-05-01 09:09 -37.78339 144.85932 2262 ft 135 kts 355°
2026-05-01 09:10 -37.77418 144.85757 2122 ft 133 kts 356°
2026-05-01 09:10 -37.76519 144.85586 1927 ft 129 kts 356°
2026-05-01 09:10 -37.75636 144.85418 1732 ft 131 kts 355°
2026-05-01 09:10 -37.74719 144.85248 1601 ft 133 kts 355°
2026-05-01 09:11 -37.73816 144.85077 1401 ft 135 kts 355°
2026-05-01 09:11 -37.72837 144.84899 1228 ft 143 kts 355°
2026-05-01 09:11 -37.71845 144.84715 998 ft 145 kts 354°
2026-05-01 09:11 -37.70834 144.84517 817 ft 148 kts 355°
2026-05-01 09:12 -37.69832 144.84326 680 ft 148 kts 354°
2026-05-01 09:12 -37.68816 144.84139 463 ft 145 kts 354°
2026-05-01 09:12 -37.67835 144.83958 364 ft 133 kts 352°
2026-05-01 09:12 -37.67044 144.83818 389 ft 93 kts 352°
2026-05-01 09:13 -37.66560 144.83726 408 ft 48 kts 351°
2026-05-01 09:13 -37.66336 144.83680 410 ft 28 kts 351°
2026-05-01 09:13 -37.66186 144.83654 414 ft 15 kts
2026-05-01 09:13 -37.66159 144.83729 411 ft 11 kts 100°
2026-05-01 09:14 -37.66175 144.83826 409 ft 13 kts 115°
2026-05-01 09:14 -37.66256 144.83885 413 ft 14 kts 168°
2026-05-01 09:14 -37.66356 144.83906 410 ft 15 kts 171°
2026-05-01 09:14 -37.66413 144.83916 406 ft 1 kts 172°
2026-05-01 09:15 -37.66421 144.83918 409 ft 0 kts 172°
2026-05-01 09:16 -37.66428 144.83919 408 ft 5 kts 172°
2026-05-01 09:16 -37.66501 144.83932 409 ft 14 kts 172°
2026-05-01 09:17 -37.66706 144.83991 400 ft 13 kts 127°
2026-05-01 09:17 -37.66723 144.84107 396 ft 14 kts 108°
2026-05-01 09:17 -37.66833 144.84222 394 ft 7 kts 114°
2026-05-01 09:18 -37.66832 144.84286 392 ft 4 kts 84°
2026-05-01 09:18 -37.66829 144.84321 395 ft 3 kts 81°
2026-05-01 09:19 -37.66828 144.84329 396 ft 0 kts 81°